Regional Weather Roundup
Issued by NWS

Home | Current Version | Previous Version | Graphics & Text | Print | Product List | Glossary On
Versions: 1 2 3 4 5 6 7 8 9 10 11 12 13 14 15 16 17 18 19 20 21 22 23 24 25 26 27 28 29 30 31 32 33 34 35 36 37 38 39 40 41 42 43 44 45 46 47 48 49 50
000
ASUS43 KBIS 170810
RWRND

NORTH DAKOTA REGIONAL WEATHER ROUNDUP
NATIONAL WEATHER SERVICE BISMARCK ND
200 AM CST SUN DEC 17 2017

NOTE: "FAIR" INDICATES FEW OR NO CLOUDS BELOW 12,000 FEET WITH NO
SIGNIFICANT WEATHER AND/OR OBSTRUCTIONS TO VISIBILITY.


NDZ001>003-009>011-017-170900-
NORTHWEST NORTH DAKOTA

CITY           SKY/WX    TMP DP  RH WIND       PRES   REMARKS
WILLISTON      CLEAR     18  14  84 SW5       30.03F WCI  11
MINOT          CLEAR     24  17  74 SW10      30.00S WCI  14
MINOT AFB      CLEAR     22  16  79 W10       29.99S WCI  11
$$

NDZ018>021-031>035-040>046-170900-
SOUTHWEST NORTH DAKOTA

CITY           SKY/WX    TMP DP  RH WIND       PRES   REMARKS
BISMARCK       CLOUDY    24  20  84 SW5       30.06F WCI  18
DICKINSON      CLOUDY    23  17  78 W6        30.01F WCI  16
GARRISON         N/A     25  20  81 W10       30.01F WCI  15
HETTINGER ARPT MOCLDY    21  17  84 CALM      30.05F
$$

NDZ004>008-012>016-024-026-027-054-170900-
NORTHEAST NORTH DAKOTA

CITY           SKY/WX    TMP DP  RH WIND       PRES   REMARKS
GRAND FORKS    CLOUDY    17  15  92 SW8       30.03F WCI   7
GRND FRKS AFB  CLOUDY    21  19  91 SW9       30.02F WCI  11
DEVILS LAKE    CLOUDY    20  17  88 SW7       30.01S WCI  11
$$

NDZ022-023-025-028>030-036>039-047>053-170900-
SOUTHEAST NORTH DAKOTA

CITY           SKY/WX    TMP DP  RH WIND       PRES   REMARKS
FARGO          MOCLDY    25  25 100 S5        30.07S FOG     WCI  19
JAMESTOWN      CLOUDY    26  25  96 W3        30.03F
$$





USA.gov is the U.S. government's official web portal to all federal, state and local government web resources and services.